Time,TemperatureF,DewpointF,PressureIn,WindDirection,WindDirectionDegrees,WindSpeedMPH,WindSpeedGustMPH,Humidity,HourlyPrecipIn,Conditions,Clouds,dailyrainin,SoftwareType,DateUTC
2015-04-25 00:00:00,49.1,47.7,29.90,NE,35,0.0,0.0,95,0.33,,,0.37,Wunderground v.1.15,2015-04-25 07:00:00,
2015-04-25 00:10:00,49.3,47.9,29.90,East,92,0.0,0.0,95,0.24,,,0.04,Wunderground v.1.15,2015-04-25 07:10:00,
2015-04-25 00:20:00,49.5,48.4,29.89,ESE,122,0.0,1.0,96,0.11,,,0.06,Wunderground v.1.15,2015-04-25 07:20:00,
2015-04-25 00:30:00,49.7,48.6,29.89,East,98,0.0,0.0,96,0.18,,,0.08,Wunderground v.1.15,2015-04-25 07:30:00,
2015-04-25 00:35:00,49.8,48.7,29.89,East,98,0.0,0.0,96,0.09,,,0.09,Wunderground v.1.15,2015-04-25 07:35:00,
2015-04-25 00:40:00,50.1,49.0,29.89,NE,49,0.0,0.0,96,0.09,,,0.09,Wunderground v.1.15,2015-04-25 07:40:00,
2015-04-25 00:50:00,50.5,49.4,29.89,NE,49,0.0,0.0,96,0.10,,,0.11,Wunderground v.1.15,2015-04-25 07:50:00,
2015-04-25 00:55:00,51.0,49.9,29.89,NE,49,0.0,0.0,96,0.10,,,0.12,Wunderground v.1.15,2015-04-25 07:55:00,
2015-04-25 01:00:00,51.2,50.1,29.89,SW,221,0.0,0.0,96,0.09,,,0.12,Wunderground v.1.15,2015-04-25 08:00:00,
2015-04-25 01:05:00,51.3,50.2,29.88,SW,221,0.0,0.0,96,0.07,,,0.13,Wunderground v.1.15,2015-04-25 08:05:00,
2015-04-25 01:15:00,51.4,50.3,29.88,SW,221,0.0,0.0,96,0.06,,,0.14,Wunderground v.1.15,2015-04-25 08:15:00,
2015-04-25 01:25:00,51.5,50.4,29.87,SW,221,0.0,0.0,96,0.05,,,0.14,Wunderground v.1.15,2015-04-25 08:25:00,
2015-04-25 01:35:00,51.8,50.7,29.88,SW,224,0.0,0.0,96,0.00,,,0.14,Wunderground v.1.15,2015-04-25 08:35:00,
2015-04-25 01:45:00,52.0,50.9,29.87,West,278,0.0,0.0,96,0.00,,,0.14,Wunderground v.1.15,2015-04-25 08:45:00,
2015-04-25 01:55:00,52.2,51.1,29.87,SW,228,0.0,0.0,96,0.00,,,0.14,Wunderground v.1.15,2015-04-25 08:55:00,
2015-04-25 02:00:00,52.2,51.1,29.87,SW,223,1.0,1.0,96,0.00,,,0.14,Wunderground v.1.15,2015-04-25 09:00:00,
2015-04-25 02:10:00,52.2,51.1,29.87,WNW,292,0.0,0.0,96,0.00,,,0.14,Wunderground v.1.15,2015-04-25 09:10:00,
2015-04-25 02:20:00,52.1,51.0,29.87,SW,223,1.0,1.0,96,0.00,,,0.14,Wunderground v.1.15,2015-04-25 09:20:00,
2015-04-25 02:30:00,52.1,51.0,29.87,WSW,251,0.0,0.0,96,0.00,,,0.14,Wunderground v.1.15,2015-04-25 09:30:00,
2015-04-25 02:40:00,51.8,50.7,29.87,SSE,157,1.0,1.0,96,0.00,,,0.14,Wunderground v.1.15,2015-04-25 09:40:00,
2015-04-25 02:50:00,51.7,50.6,29.88,West,279,1.0,1.0,96,0.00,,,0.15,Wunderground v.1.15,2015-04-25 09:50:00,
2015-04-25 03:00:00,51.5,50.4,29.87,SW,229,0.0,1.0,96,0.00,,,0.15,Wunderground v.1.15,2015-04-25 10:00:00,
2015-04-25 03:10:00,51.3,50.2,29.87,NW,308,1.0,1.0,96,0.04,,,0.16,Wunderground v.1.15,2015-04-25 10:10:00,
2015-04-25 03:15:00,51.2,50.1,29.88,West,262,1.0,1.0,96,0.04,,,0.16,Wunderground v.1.15,2015-04-25 10:15:00,
2015-04-25 03:25:00,51.2,50.1,29.87,NW,317,1.0,1.0,96,0.00,,,0.16,Wunderground v.1.15,2015-04-25 10:25:00,
2015-04-25 03:35:00,51.0,49.9,29.87,WSW,243,0.0,1.0,96,0.00,,,0.16,Wunderground v.1.15,2015-04-25 10:35:00,
2015-04-25 03:45:00,51.0,49.9,29.87,West,270,1.0,1.0,96,0.00,,,0.16,Wunderground v.1.15,2015-04-25 10:45:00,
2015-04-25 03:55:00,51.0,49.9,29.87,West,265,1.0,1.0,96,0.00,,,0.16,Wunderground v.1.15,2015-04-25 10:55:00,
2015-04-25 04:00:00,51.0,49.9,29.88,WNW,287,1.0,1.0,96,0.00,,,0.16,Wunderground v.1.15,2015-04-25 11:00:00,
2015-04-25 04:10:00,51.0,49.9,29.88,SW,223,0.0,0.0,96,0.00,,,0.16,Wunderground v.1.15,2015-04-25 11:10:00,
2015-04-25 04:20:00,51.0,49.9,29.88,WSW,242,1.0,1.0,96,0.00,,,0.16,Wunderground v.1.15,2015-04-25 11:20:00,
2015-04-25 04:30:00,50.9,49.8,29.88,WNW,283,0.0,0.0,96,0.00,,,0.16,Wunderground v.1.15,2015-04-25 11:30:00,
2015-04-25 04:40:00,51.0,49.9,29.88,SW,234,0.0,0.0,96,0.00,,,0.16,Wunderground v.1.15,2015-04-25 11:40:00,
2015-04-25 04:50:00,51.0,49.9,29.88,South,178,0.0,0.0,96,0.00,,,0.16,Wunderground v.1.15,2015-04-25 11:50:00,
2015-04-25 05:00:00,50.8,49.7,29.88,NNW,336,0.0,0.0,96,0.00,,,0.16,Wunderground v.1.15,2015-04-25 12:00:00,
2015-04-25 05:10:00,50.8,49.7,29.88,WSW,251,0.0,0.0,96,0.00,,,0.16,Wunderground v.1.15,2015-04-25 12:10:00,
2015-04-25 05:20:00,50.9,49.8,29.88,SSW,212,0.0,0.0,96,0.00,,,0.16,Wunderground v.1.15,2015-04-25 12:20:00,
2015-04-25 05:30:00,50.8,49.7,29.88,SW,225,0.0,0.0,96,0.00,,,0.16,Wunderground v.1.15,2015-04-25 12:30:00,
2015-04-25 05:35:00,50.8,49.7,29.88,SSW,210,0.0,0.0,96,0.00,,,0.16,Wunderground v.1.15,2015-04-25 12:35:00,
2015-04-25 05:45:00,50.8,49.7,29.88,SW,222,0.0,0.0,96,0.00,,,0.16,Wunderground v.1.15,2015-04-25 12:45:00,
2015-04-25 05:55:00,50.8,49.7,29.89,SW,221,0.0,0.0,96,0.00,,,0.16,Wunderground v.1.15,2015-04-25 12:55:00,
2015-04-25 06:00:00,50.8,49.7,29.89,SW,216,0.0,0.0,96,0.00,,,0.16,Wunderground v.1.15,2015-04-25 13:00:00,
2015-04-25 06:10:00,50.8,49.7,29.89,SW,236,0.0,0.0,96,0.00,,,0.16,Wunderground v.1.15,2015-04-25 13:10:00,
2015-04-25 06:20:00,50.7,49.6,29.90,West,278,0.0,0.0,96,0.00,,,0.16,Wunderground v.1.15,2015-04-25 13:20:00,
2015-04-25 06:30:00,50.7,49.6,29.90,WSW,253,0.0,0.0,96,0.00,,,0.16,Wunderground v.1.15,2015-04-25 13:30:00,
2015-04-25 06:40:00,50.7,49.6,29.90,WSW,254,0.0,0.0,96,0.00,,,0.16,Wunderground v.1.15,2015-04-25 13:40:00,
2015-04-25 06:50:00,50.7,49.6,29.89,NW,311,0.0,0.0,96,0.00,,,0.16,Wunderground v.1.15,2015-04-25 13:50:00,
2015-04-25 07:00:00,50.7,49.6,29.90,WSW,247,0.0,0.0,96,0.00,,,0.16,Wunderground v.1.15,2015-04-25 14:00:00,
2015-04-25 07:10:00,50.7,49.6,29.90,SW,223,0.0,0.0,96,0.00,,,0.16,Wunderground v.1.15,2015-04-25 14:10:00,
2015-04-25 07:15:00,50.8,49.7,29.90,SW,231,0.0,0.0,96,0.00,,,0.16,Wunderground v.1.15,2015-04-25 14:15:00,
2015-04-25 07:25:00,50.6,49.5,29.91,SW,227,0.0,1.0,96,0.00,,,0.16,Wunderground v.1.15,2015-04-25 14:25:00,
2015-04-25 07:35:00,50.6,49.5,29.91,WSW,238,0.0,0.0,96,0.00,,,0.16,Wunderground v.1.15,2015-04-25 14:35:00,
2015-04-25 07:45:00,50.8,49.7,29.92,SSW,212,0.0,1.0,96,0.00,,,0.16,Wunderground v.1.15,2015-04-25 14:45:00,
2015-04-25 07:55:00,50.9,49.8,29.92,WNW,295,0.0,1.0,96,0.00,,,0.16,Wunderground v.1.15,2015-04-25 14:55:00,
2015-04-25 08:00:00,51.1,50.0,29.92,SW,236,1.0,3.0,96,0.00,,,0.16,Wunderground v.1.15,2015-04-25 15:00:00,
2015-04-25 08:10:00,51.6,50.5,29.92,SSW,212,1.0,2.0,96,0.00,,,0.16,Wunderground v.1.15,2015-04-25 15:10:00,
2015-04-25 08:20:00,51.6,50.5,29.92,WSW,255,1.0,4.0,96,0.00,,,0.16,Wunderground v.1.15,2015-04-25 15:20:00,
2015-04-25 08:30:00,51.6,50.2,29.93,SW,231,2.0,2.0,95,0.00,,,0.16,Wunderground v.1.15,2015-04-25 15:30:00,
2015-04-25 08:40:00,51.8,50.4,29.92,WSW,238,2.0,2.0,95,0.00,,,0.16,Wunderground v.1.15,2015-04-25 15:40:00,
2015-04-25 08:50:00,52.2,50.8,29.93,WSW,242,2.0,2.0,95,0.00,,,0.16,Wunderground v.1.15,2015-04-25 15:50:00,
2015-04-25 09:00:00,52.4,50.7,29.93,SW,226,1.0,2.0,94,0.00,,,0.16,Wunderground v.1.15,2015-04-25 16:00:00,
2015-04-25 09:10:00,52.5,50.5,29.93,SW,214,1.0,2.0,93,0.00,,,0.16,Wunderground v.1.15,2015-04-25 16:10:00,
2015-04-25 09:15:00,52.5,50.5,29.93,SSW,212,1.0,2.0,93,0.00,,,0.16,Wunderground v.1.15,2015-04-25 16:15:00,
2015-04-25 09:25:00,52.8,50.8,29.94,WSW,238,1.0,1.0,93,0.00,,,0.16,Wunderground v.1.15,2015-04-25 16:25:00,
2015-04-25 09:35:00,52.8,50.2,29.93,SSE,158,2.0,2.0,91,0.00,,,0.16,Wunderground v.1.15,2015-04-25 16:35:00,
2015-04-25 09:45:00,53.6,51.0,29.94,West,265,0.0,1.0,91,0.00,,,0.16,Wunderground v.1.15,2015-04-25 16:45:00,
2015-04-25 09:50:00,53.8,50.9,29.94,West,259,1.0,1.0,90,0.00,,,0.16,Wunderground v.1.15,2015-04-25 16:50:00,
2015-04-25 10:00:00,54.4,50.9,29.94,WSW,244,1.0,2.0,88,0.00,,,0.16,Wunderground v.1.15,2015-04-25 17:00:00,
2015-04-25 10:10:00,54.4,50.9,29.95,SW,216,1.0,1.0,88,0.00,,,0.16,Wunderground v.1.15,2015-04-25 17:10:00,
2015-04-25 10:20:00,54.7,50.6,29.95,WSW,239,1.0,1.0,86,0.00,,,0.16,Wunderground v.1.15,2015-04-25 17:20:00,
2015-04-25 10:30:00,55.5,51.1,29.96,WNW,283,0.0,0.0,85,0.00,,,0.16,Wunderground v.1.15,2015-04-25 17:30:00,
2015-04-25 10:40:00,55.6,51.2,29.97,SSW,207,2.0,2.0,85,0.00,,,0.16,Wunderground v.1.15,2015-04-25 17:40:00,
2015-04-25 10:45:00,55.9,51.8,29.97,South,182,2.0,2.0,86,0.00,,,0.16,Wunderground v.1.15,2015-04-25 17:45:00,
2015-04-25 10:55:00,57.2,51.1,29.96,WSW,245,2.0,2.0,80,0.00,,,0.16,Wunderground v.1.15,2015-04-25 17:55:00,
2015-04-25 11:00:00,57.3,51.5,29.96,WNW,295,1.0,1.0,81,0.00,,,0.16,Wunderground v.1.15,2015-04-25 18:00:00,
2015-04-25 11:10:00,57.9,52.1,29.97,SW,231,1.0,1.0,81,0.00,,,0.16,Wunderground v.1.15,2015-04-25 18:10:00,
2015-04-25 11:15:00,58.6,51.8,29.97,South,180,1.0,1.0,78,0.00,,,0.16,Wunderground v.1.15,2015-04-25 18:15:00,
2015-04-25 11:25:00,59.2,50.5,29.97,NW,319,1.0,1.0,73,0.00,,,0.16,Wunderground v.1.15,2015-04-25 18:25:00,
2015-04-25 11:30:00,59.3,51.4,29.97,West,262,1.0,1.0,75,0.00,,,0.16,Wunderground v.1.15,2015-04-25 18:30:00,
2015-04-25 11:40:00,59.4,51.5,29.97,SW,235,2.0,2.0,75,0.00,,,0.16,Wunderground v.1.15,2015-04-25 18:40:00,
2015-04-25 11:50:00,60.6,52.3,29.96,SW,231,2.0,3.0,74,0.00,,,0.16,Wunderground v.1.15,2015-04-25 18:50:00,
2015-04-25 12:00:00,60.9,52.6,29.96,WSW,252,2.0,2.0,74,0.00,,,0.16,Wunderground v.1.15,2015-04-25 19:00:00,
2015-04-25 12:10:00,61.6,50.5,29.96,WSW,247,2.0,2.0,67,0.00,,,0.16,Wunderground v.1.15,2015-04-25 19:10:00,
2015-04-25 12:20:00,62.1,51.4,29.96,SW,218,1.0,2.0,68,0.00,,,0.16,Wunderground v.1.15,2015-04-25 19:20:00,
2015-04-25 12:25:00,61.8,50.7,29.96,WNW,288,2.0,3.0,67,0.00,,,0.16,Wunderground v.1.15,2015-04-25 19:25:00,
2015-04-25 12:35:00,62.6,52.3,29.96,SSW,208,2.0,3.0,69,0.00,,,0.16,Wunderground v.1.15,2015-04-25 19:35:00,
2015-04-25 12:45:00,64.0,52.0,29.96,NW,314,2.0,3.0,65,0.00,,,0.16,Wunderground v.1.15,2015-04-25 19:45:00,
2015-04-25 12:55:00,63.8,50.5,29.96,WSW,252,2.0,2.0,62,0.00,,,0.16,Wunderground v.1.15,2015-04-25 19:55:00,
2015-04-25 13:00:00,63.5,51.1,29.96,NW,326,2.0,2.0,64,0.00,,,0.16,Wunderground v.1.15,2015-04-25 20:00:00,
2015-04-25 13:10:00,64.5,49.8,29.95,WSW,255,2.0,2.0,59,0.00,,,0.16,Wunderground v.1.15,2015-04-25 20:10:00,
2015-04-25 13:20:00,65.2,51.4,29.96,SW,222,2.0,4.0,61,0.00,,,0.16,Wunderground v.1.15,2015-04-25 20:20:00,
2015-04-25 13:30:00,65.2,50.5,29.96,SSW,199,2.0,3.0,59,0.00,,,0.16,Wunderground v.1.15,2015-04-25 20:30:00,
2015-04-25 13:40:00,65.5,51.2,29.96,SW,236,2.0,4.0,60,0.00,,,0.16,Wunderground v.1.15,2015-04-25 20:40:00,
2015-04-25 13:50:00,66.2,49.6,29.95,NNW,328,4.0,4.0,55,0.00,,,0.16,Wunderground v.1.15,2015-04-25 20:50:00,
2015-04-25 14:00:00,67.0,50.8,29.96,SE,141,2.0,2.0,56,0.00,,,0.16,Wunderground v.1.15,2015-04-25 21:00:00,
2015-04-25 14:10:00,67.0,51.7,29.95,SSE,152,2.0,2.0,58,0.00,,,0.16,Wunderground v.1.15,2015-04-25 21:10:00,
2015-04-25 14:20:00,65.9,52.1,29.95,West,281,4.0,5.0,61,0.00,,,0.16,Wunderground v.1.15,2015-04-25 21:20:00,
2015-04-25 14:25:00,65.4,51.6,29.95,WSW,247,5.0,5.0,61,0.00,,,0.16,Wunderground v.1.15,2015-04-25 21:25:00,
2015-04-25 14:35:00,66.2,51.4,29.95,SSE,167,3.0,4.0,59,0.00,,,0.16,Wunderground v.1.15,2015-04-25 21:35:00,
2015-04-25 14:45:00,64.9,50.7,29.95,SW,231,5.0,5.0,60,0.00,,,0.16,Wunderground v.1.15,2015-04-25 21:45:00,
2015-04-25 14:55:00,65.0,51.2,29.95,SW,231,5.0,9.0,61,0.00,,,0.16,Wunderground v.1.15,2015-04-25 21:55:00,
2015-04-25 15:00:00,64.5,51.2,29.95,SW,236,5.0,5.0,62,0.00,,,0.16,Wunderground v.1.15,2015-04-25 22:00:00,
2015-04-25 15:05:00,64.6,50.8,29.95,West,278,5.0,5.0,61,0.00,,,0.16,Wunderground v.1.15,2015-04-25 22:05:00,
2015-04-25 15:15:00,65.6,50.9,29.94,West,279,4.0,4.0,59,0.00,,,0.16,Wunderground v.1.15,2015-04-25 22:15:00,
2015-04-25 15:20:00,65.2,50.5,29.94,SE,146,5.0,6.0,59,0.00,,,0.16,Wunderground v.1.15,2015-04-25 22:20:00,
2015-04-25 15:30:00,65.3,50.6,29.94,SSE,153,4.0,4.0,59,0.00,,,0.16,Wunderground v.1.15,2015-04-25 22:30:00,
2015-04-25 15:40:00,65.0,49.9,29.95,SSE,155,4.0,4.0,58,0.00,,,0.16,Wunderground v.1.15,2015-04-25 22:40:00,